{"data":{"norad_id":46025,"epoch":"2026-05-25T03:57:12.570048Z","epoch_age_seconds":63973,"freshness":"FRESH","line1":"1 46025U 20054A   26145.16472882  .00009919  00000+0  27849-3 0  9994","line2":"2 46025  97.2440 214.4700 0011275 166.2637 193.8917 15.36680679322826","mean_motion":15.36680679,"eccentricity":0.0011275,"inclination_deg":97.244,"raan_deg":214.47,"arg_perigee_deg":166.2637,"mean_anomaly_deg":193.8917,"bstar":0.00027849,"rev_number":32282,"period_min":93.708473053561,"perigee_km":448.22755292477,"apogee_km":463.63838069993,"semimajor_km":6834.0699668124,"source":"CELESTRAK","updated_at":"2026-05-25T13:37:56.253749Z"}}